Northeast Philadelphia, PA

1:12 PM EDT on October 15, 2019 (GMT -0400)
Northeast Philadelphia

Weather History for KPNE - August, 2019

Change the Weather History Date:

Tuesday, August 27, 2019

  Actual Average Record
Temperature  
Mean Temperature 68 °F -  
Max Temperature 77 °F 81 °F 93 °F (2018)
Min Temperature 60 °F 63 °F 57 °F (2008)
Cooling Degree Days 4    
Growing Degree Days 18 (Base 50)    
Moisture  
Dew Point 59 °F    
Average Humidity 73    
Maximum Humidity 87    
Minimum Humidity 58    
Precipitation  
Precipitation 0.00 in - - ()
Sea Level Pressure  
Sea Level Pressure 30.07 in    
Wind  
Wind Speed 3 mph ()    
Max Wind Speed 8 mph    
Max Gust Speed -    
Visibility 10.0 miles    
Events      
Averages and records for this station are not official NWS values.
T = Trace of Precipitation, MM = Missing Value Source: Averaged Metar Reports

Daily Weather History Graph

Daily Weather History Graph

Search for Another Location

Airport or City:

Astronomy

Aug. 27, 2019 Rise Set
Actual Time 6:22 AM EDT 7:39 PM EDT
Civil Twilight 5:54 AM EDT 8:07 PM EDT
Nautical Twilight 5:20 AM EDT 8:41 PM EDT
Astronomical Twilight 4:45 AM EDT 9:16 PM EDT
Moon 2:44 AM EDT (8/27) 5:58 PM EDT (8/27)
Length of Visible Light 14h 13m
Length of Day
13h 16m
Waning Crescent, 11% of the Moon is Illuminated
Aug 27
Waning Crescent
Aug 30
New
Sep 5
First Quarter
Sep 14
Full
Sep 21
Last Quarter

Hourly Weather History & Observations

Time (EDT) Temp. Dew Point Humidity Pressure Visibility Wind Dir Wind Speed Gust Speed Precip Events Conditions
12:54 AM 62.1 °F 55.9 °F 80% 30.16 in 10.0 mi Calm Calm - N/A   Clear
1:54 AM 60.1 °F 55.0 °F 83% 30.14 in 10.0 mi NE 3.5 mph - N/A   Clear
2:54 AM 61.0 °F 55.9 °F 83% 30.13 in 10.0 mi Calm Calm - N/A   Clear
3:54 AM 61.0 °F 55.9 °F 83% 30.11 in 10.0 mi NE 3.5 mph - N/A   Partly Cloudy
4:54 AM 61.0 °F 55.9 °F 83% 30.09 in 10.0 mi ENE 4.6 mph - N/A   Partly Cloudy
5:54 AM 60.1 °F 55.9 °F 86% 30.10 in 10.0 mi NE 3.5 mph - N/A   Clear
6:54 AM 61.0 °F 57.0 °F 87% 30.09 in 10.0 mi NE 5.8 mph - N/A   Clear
7:54 AM 64.0 °F 57.9 °F 80% 30.11 in 10.0 mi NE 3.5 mph - N/A   Clear
8:54 AM 66.9 °F 59.0 °F 76% 30.11 in 10.0 mi ENE 4.6 mph - N/A   Clear
9:54 AM 69.1 °F 57.9 °F 68% 30.12 in 10.0 mi East 6.9 mph - N/A   Clear
10:54 AM 70.0 °F 59.0 °F 68% 30.11 in 10.0 mi Variable 6.9 mph - N/A   Clear
11:54 AM 72.0 °F 59.0 °F 64% 30.09 in 10.0 mi North - - N/A   Clear
12:54 PM 73.0 °F 60.1 °F 64% 30.08 in 10.0 mi North - - N/A   Partly Cloudy
1:54 PM 73.9 °F 60.1 °F 62% 30.06 in 10.0 mi ESE 4.6 mph - N/A   Clear
2:54 PM 73.9 °F 60.1 °F 62% 30.04 in 10.0 mi Variable 3.5 mph - N/A   Partly Cloudy
3:54 PM 75.9 °F 60.1 °F 58% 30.03 in 10.0 mi Variable 3.5 mph - N/A   Clear
4:54 PM 75.9 °F 61.0 °F 60% 30.02 in 10.0 mi SE 5.8 mph - N/A   Partly Cloudy
5:54 PM 77.0 °F 62.1 °F 60% 30.01 in 10.0 mi East 6.9 mph - N/A   Clear
6:54 PM 75.0 °F 62.1 °F 64% 30.00 in 10.0 mi East 6.9 mph - N/A   Clear
7:54 PM 73.0 °F 62.1 °F 68% 30.01 in 10.0 mi SE 8.1 mph - N/A   Clear
8:54 PM 71.1 °F 62.1 °F 73% 30.02 in 10.0 mi SE 6.9 mph - N/A   Clear
9:54 PM 69.1 °F 62.1 °F 78% 30.03 in 10.0 mi ESE 6.9 mph - N/A   Clear
10:54 PM 68.0 °F 62.1 °F 81% 30.04 in 10.0 mi East 4.6 mph - N/A   Clear
11:54 PM 68.0 °F 62.1 °F 81% 30.03 in 10.0 mi NNE 3.5 mph - N/A   Scattered Clouds